Location: Blangy-Tronville
(49.8790°N, 2.4226°E)
Time: 00:01:29
(UTC+00:00)

ARIANE 5 R/B - Pass Details

Date: 18 November 2025
Orbit: 746 x 792 km, 98.8° (Epoch: 05 December)

Event Time Altitude Azimuth Distance (km) Brightness Sun altitude
Rises 17:43:35 0° 178° (S) 3,178 5.8 -16.0°
Reaches altitude 10° 17:45:55 10° 184° (S) 2,259 5.1 -16.3°
Maximum altitude 17:50:44 50° 260° (W) 953 3.4 -17.1°
Drops below altitude 10° 17:55:37 10° 336° (NNW) 2,286 5.1 -17.9°
Sets 17:58:00 0° 341° (NNW) 3,220 5.9 -18.3°
